Buies Creek, NC

3:58 PM EST on February 13, 2016 (GMT -0500)
Harnett County

Weather History for KHRJ - December, 2013

Change the Weather History Date:

Wednesday, December 25, 2013

  Actual Average Record
Temperature  
Mean Temperature 34 °F -  
Max Temperature 41 °F 51 °F 76 °F (2015)
Min Temperature 27 °F 30 °F 1 °F (1989)
Degree Days  
Heating Degree Days 31    
Moisture  
Dew Point 14 °F    
Average Humidity 47    
Maximum Humidity 71    
Minimum Humidity 28    
Precipitation  
Precipitation 0.00 in - - ()
Sea Level Pressure  
Sea Level Pressure 30.48 in    
Wind  
Wind Speed 5 mph (NNE)    
Max Wind Speed 12 mph    
Max Gust Speed 16 mph    
Visibility 10 miles    
Events      
Averages and records for this station are not official NWS values.
T = Trace of Precipitation, MM = Missing Value Source: NWS Daily Summary

Daily Weather History Graph

Daily Weather History Graph

Search for Another Location

Airport or City:

Trip Planner

Search our weather history database for the weather conditions in past years. The results will help you decide how hot, cold, wet, or windy it might be!

Date:

Astronomy

Dec. 25, 2013 Rise Set
Actual Time 7:21 AM EST 5:08 PM EST
Civil Twilight 6:53 AM EST 5:36 PM EST
Nautical Twilight 6:21 AM EST 6:08 PM EST
Astronomical Twilight 5:50 AM EST 6:39 PM EST
Moon No Moon Rise 12:00 PM EST (12/25)
Length of Visible Light 10h 43m
Length of Day
9h 46m
Waning Gibbous, 49% of the Moon is Illuminated
Dec 25
Waning Gibbous
Jan 1
New
Jan 7
First Quarter
Jan 15
Full
Jan 24
Last Quarter

Hourly Weather History & Observations

Time (EST) Temp. Windchill Dew Point Humidity Pressure Visibility Wind Dir Wind Speed Gust Speed Precip Events Conditions
12:15 AM 32.4 °F 25.3 °F 16.0 °F 51% 30.45 in 10.0 mi North 8.1 mph - N/A   Clear
12:35 AM 32.0 °F 26.4 °F 15.1 °F 50% 30.46 in 10.0 mi North 5.8 mph - N/A   Clear
12:55 AM 31.8 °F 25.4 °F 15.4 °F 51% 30.46 in 10.0 mi North 6.9 mph - N/A   Clear
1:15 AM 31.3 °F 26.6 °F 14.5 °F 50% 30.46 in 10.0 mi North 4.6 mph - N/A   Clear
1:35 AM 31.1 °F 26.4 °F 14.2 °F 50% 30.46 in 10.0 mi North 4.6 mph - N/A   Clear
1:55 AM 30.6 °F 25.8 °F 14.5 °F 51% 30.47 in 10.0 mi North 4.6 mph - N/A   Clear
2:15 AM 30.2 °F 24.3 °F 15.4 °F 54% 30.46 in 10.0 mi NNW 5.8 mph - N/A   Clear
2:35 AM 30.0 °F 25.2 °F 14.9 °F 53% 30.47 in 10.0 mi North 4.6 mph - N/A   Clear
2:55 AM 29.8 °F 23.9 °F 14.5 °F 53% 30.46 in 10.0 mi North 5.8 mph - N/A   Clear
3:15 AM 29.8 °F 24.9 °F 14.0 °F 52% 30.47 in 10.0 mi North 4.6 mph - N/A   Clear
3:35 AM 29.3 °F 24.3 °F 14.4 °F 54% 30.47 in 10.0 mi North 4.6 mph - N/A   Clear
3:55 AM 29.3 °F 25.6 °F 14.2 °F 53% 30.48 in 10.0 mi North 3.5 mph - N/A   Clear
4:15 AM 28.9 °F 23.9 °F 14.4 °F 55% 30.48 in 10.0 mi North 4.6 mph - N/A   Clear
4:35 AM 28.9 °F 23.9 °F 14.2 °F 54% 30.48 in 10.0 mi North 4.6 mph - N/A   Clear
4:55 AM 28.6 °F 23.5 °F 14.0 °F 54% 30.48 in 10.0 mi North 4.6 mph - N/A   Clear
5:15 AM 28.4 °F 22.2 °F 13.8 °F 54% 30.48 in 10.0 mi North 5.8 mph - N/A   Clear
5:35 AM 28.8 °F 23.7 °F 12.2 °F 50% 30.48 in 10.0 mi North 4.6 mph - N/A   Clear
5:55 AM 28.4 °F 22.2 °F 12.2 °F 51% 30.49 in 10.0 mi NNE 5.8 mph - N/A   Clear
6:15 AM 28.2 °F 23.1 °F 12.6 °F 52% 30.49 in 10.0 mi North 4.6 mph - N/A   Clear
6:35 AM 28.0 °F 22.8 °F 12.6 °F 52% 30.49 in 10.0 mi North 4.6 mph - N/A   Clear
6:55 AM 27.5 °F 22.2 °F 12.9 °F 54% 30.50 in 10.0 mi NNE 4.6 mph - N/A   Clear
7:15 AM 27.5 °F 22.2 °F 12.7 °F 54% 30.51 in 10.0 mi North 4.6 mph - N/A   Clear
7:35 AM 27.3 °F 22.0 °F 13.1 °F 55% 30.51 in 10.0 mi North 4.6 mph - N/A   Clear
7:55 AM 27.9 °F 24.0 °F 13.1 °F 54% 30.52 in 10.0 mi North 3.5 mph - N/A   Clear
8:15 AM 28.9 °F 22.8 °F 12.9 °F 51% 30.53 in 10.0 mi NNE 5.8 mph - N/A   Clear
8:35 AM 29.7 °F 23.7 °F 12.6 °F 49% 30.53 in 10.0 mi NNE 5.8 mph - N/A   Clear
8:55 AM 30.4 °F 22.2 °F 11.8 °F 46% 30.54 in 10.0 mi NE 9.2 mph - N/A   Clear
9:15 AM 31.1 °F 23.1 °F 10.2 °F 42% 30.55 in 10.0 mi ENE 9.2 mph - N/A   Clear
9:35 AM 32.0 °F 23.6 °F 10.0 °F 40% 30.55 in 10.0 mi NE 10.4 mph 16.1 mph N/A   Clear
9:55 AM 32.2 °F 23.2 °F 8.4 °F 37% 30.55 in 10.0 mi ENE 11.5 mph - N/A   Clear
10:15 AM 33.1 °F 26.1 °F 9.0 °F 37% 30.56 in 10.0 mi NE 8.1 mph - N/A   Clear
10:35 AM 33.8 °F 26.4 °F 7.7 °F 34% 30.55 in 10.0 mi NE 9.2 mph - N/A   Clear
10:55 AM 34.9 °F 29.9 °F 8.4 °F 33% 30.55 in 10.0 mi NNE 5.8 mph - N/A   Clear
11:15 AM 35.4 °F 31.5 °F 8.4 °F 33% 30.55 in 10.0 mi North 4.6 mph - N/A   Clear
11:35 AM 36.5 °F 32.7 °F 7.7 °F 30% 30.54 in 10.0 mi ENE 4.6 mph - N/A   Clear
11:55 AM 36.9 °F 33.1 °F 8.8 °F 31% 30.53 in 10.0 mi NNE 4.6 mph - N/A   Clear
12:15 PM 36.9 °F - 7.9 °F 30% 30.51 in 10.0 mi Calm Calm - N/A   Clear
12:35 PM 37.6 °F - 9.3 °F 31% 30.50 in 10.0 mi Calm Calm - N/A   Clear
12:55 PM 38.3 °F 33.2 °F 8.6 °F 29% 30.50 in 10.0 mi ENE 6.9 mph - N/A   Clear
1:15 PM 38.5 °F 36.1 °F 8.8 °F 29% 30.49 in 10.0 mi North 3.5 mph - N/A   Clear
1:35 PM 39.4 °F 36.1 °F 10.8 °F 31% 30.48 in 10.0 mi East 4.6 mph - N/A   Clear
1:55 PM 40.3 °F - 10.4 °F 29% 30.48 in 10.0 mi Calm Calm - N/A   Clear
2:15 PM 38.5 °F - 8.8 °F 29% 30.47 in 10.0 mi Calm Calm - N/A   Clear
2:35 PM 39.6 °F 34.7 °F 9.1 °F 29% 30.46 in 10.0 mi SE 6.9 mph - N/A   Clear
2:55 PM 41.2 °F 39.2 °F 10.4 °F 28% 30.46 in 10.0 mi East 3.5 mph - N/A   Clear
3:15 PM 40.1 °F - 9.7 °F 29% 30.45 in 10.0 mi Calm Calm - N/A   Clear
3:35 PM 40.1 °F - 9.9 °F 29% 30.45 in 10.0 mi Calm Calm - N/A   Clear
3:55 PM 40.6 °F - 9.5 °F 28% 30.45 in 10.0 mi Calm Calm - N/A   Clear
4:15 PM 41.0 °F 38.0 °F 10.2 °F 28% 30.45 in 10.0 mi NE 4.6 mph - N/A   Clear
4:35 PM 40.8 °F 37.8 °F 10.6 °F 29% 30.45 in 10.0 mi NE 4.6 mph - N/A   Clear
4:55 PM 39.2 °F 37.0 °F 11.1 °F 32% 30.46 in 10.0 mi NE 3.5 mph - N/A   Clear
5:15 PM 38.1 °F - 11.1 °F 33% 30.45 in 10.0 mi Calm Calm - N/A   Clear
5:35 PM 36.3 °F - 16.0 °F 44% 30.45 in 10.0 mi Calm Calm - N/A   Clear
5:55 PM 35.6 °F 32.8 °F 14.9 °F 43% 30.45 in 10.0 mi NE 3.5 mph - N/A   Clear
6:15 PM 34.5 °F 31.6 °F 16.9 °F 49% 30.45 in 10.0 mi NE 3.5 mph - N/A   Clear
6:35 PM 32.9 °F - 21.0 °F 62% 30.45 in 10.0 mi Calm Calm - N/A   Clear
6:55 PM 34.0 °F 31.0 °F 15.8 °F 47% 30.45 in 10.0 mi East 3.5 mph - N/A   Clear
7:15 PM 32.5 °F 29.3 °F 20.8 °F 62% 30.45 in 10.0 mi ENE 3.5 mph - N/A   Clear
7:35 PM 33.1 °F - 18.0 °F 54% 30.45 in 10.0 mi Calm Calm - N/A   Clear
7:55 PM 33.1 °F 30.0 °F 17.1 °F 52% 30.45 in 10.0 mi East 3.5 mph - N/A   Clear
8:15 PM 33.1 °F - 17.6 °F 53% 30.45 in 10.0 mi Calm Calm - N/A   Clear
8:35 PM 32.0 °F - 19.4 °F 60% 30.44 in 10.0 mi Calm Calm - N/A   Clear
8:55 PM 31.8 °F - 20.5 °F 63% 30.44 in 10.0 mi Calm Calm - N/A   Clear
9:15 PM 31.1 °F 27.7 °F 22.8 °F 71% 30.43 in 10.0 mi ENE 3.5 mph - N/A   Clear
9:35 PM 30.7 °F 27.3 °F 21.6 °F 69% 30.43 in 10.0 mi NE 3.5 mph - N/A   Clear
9:55 PM 31.6 °F 27.0 °F 20.1 °F 62% 30.42 in 10.0 mi ENE 4.6 mph - N/A   Clear
10:15 PM 32.0 °F 27.5 °F 19.4 °F 60% 30.42 in 10.0 mi NE 4.6 mph - N/A   Clear
10:35 PM 31.8 °F - 20.5 °F 63% 30.42 in 10.0 mi Calm Calm - N/A   Scattered Clouds
10:55 PM 31.5 °F - 21.9 °F 68% 30.43 in 10.0 mi Calm Calm - N/A   Overcast
11:15 PM 31.5 °F - 22.3 °F 69% 30.42 in 10.0 mi Calm Calm - N/A   Overcast
11:35 PM 32.0 °F 28.7 °F 23.2 °F 70% 30.40 in 10.0 mi North 3.5 mph - N/A   Overcast
11:55 PM 32.4 °F - 23.0 °F 68% 30.40 in 10.0 mi Calm Calm - N/A   Overcast